This is the latest recevied weather packets stored in our database for station/object N3SBK. If no packets are shown the sender has not sent any weather packets the latest 10 day(s).
| Time | Temp. | Humidity | Pressure | Rain* | Wind** | Luminosity | Snow |
|---|---|---|---|---|---|---|---|
| 1787934733 | 23.89° C | 67% | 1012.1 hPa | 0 mm | - | 724 W/m² | - |
| 1787934432 | 23.89° C | 69% | 1012.2 hPa | 0 mm | - | 537 W/m² | - |
| 1787934127 | 23.89° C | 70% | 1012.2 hPa | 0 mm | - | 223 W/m² | - |
| 1787933826 | 24.44° C | 69% | 1012.1 hPa | 0 mm | - | 258 W/m² | - |
| 1787933521 | 23.89° C | 66% | 1012.1 hPa | 0 mm | - | 722 W/m² | - |
| 1787933215 | 23.89° C | 65% | 1012.1 hPa | 0 mm | - | 693 W/m² | - |
| 1787932911 | 23.89° C | 70% | 1012.1 hPa | 0 mm | - | 657 W/m² | - |
| 1787932609 | 23.89° C | 67% | 1012.1 hPa | 0 mm | - | 181 W/m² | - |
| 1787932308 | 23.33° C | 70% | 1012 hPa | 0 mm | - | 649 W/m² | - |
| 1787932003 | 23.89° C | 69% | 1012 hPa | 0 mm | - | 619 W/m² | - |
| 1787931703 | 23.33° C | 72% | 1012 hPa | 0 mm | - | 542 W/m² | - |
| 1787931397 | 23.33° C | 73% | 1011.9 hPa | 0 mm | - | 603 W/m² | - |
| 1787931092 | 23.33° C | 73% | 1012.1 hPa | 0 mm | - | 596 W/m² | - |
| 1787930791 | 22.78° C | 76% | 1012 hPa | 0 mm | - | 588 W/m² | - |
| 1787930486 | 22.22° C | 77% | 1012.1 hPa | 0 mm | - | 577 W/m² | - |
| 1787930181 | 21.67° C | 78% | 1012.1 hPa | 0 mm | - | 376 W/m² | - |
| 1787929880 | 21.67° C | 81% | 1011.9 hPa | 0 mm | - | 427 W/m² | - |
| 1787929575 | 20.56° C | 88% | 1011.7 hPa | 0 mm | - | 448 W/m² | - |
| 1787929274 | 20.56° C | 88% | 1011.7 hPa | 0 mm | - | 448 W/m² | - |
| 1787928972 | 20° C | 91% | 1011.8 hPa | 0 mm | - | 66 W/m² | - |
| 1787928667 | 20° C | 91% | 1011.6 hPa | 0 mm | - | 66 W/m² | - |
| 1787928366 | 20° C | 92% | 1011.8 hPa | 0 mm | - | 58 W/m² | - |
| 1787928064 | 19.44° C | 92% | 1011.7 hPa | 0 mm | - | 47 W/m² | - |
| 1787927763 | 19.44° C | 94% | 1011.7 hPa | 0 mm | - | 38 W/m² | - |
| 1787927459 | 19.44° C | 95% | 1011.5 hPa | 0 mm | - | 38 W/m² | - |
* Rain latest hour (hover to see other rain measurements)
** Current wind speed in m/s (hover to see current wind gust speed)